Home   Weather   Funchal   Past weeks

Flag for Portugal Past Weather in Funchal, Madeira, Portugal — Yesterday and Last 2 Weeks

Now
61 °F

Passing clouds.


Feels Like: 61 °F
Forecast: N/A
Wind: 9 mph from North

Location: Aeroporto Da Madeira

Current Time: Jan 19, 2017 at 9:27:32 pm

Latest Report: Jan 19, 2017 at 8:30 pm


Visibility: N/A

Pressure: 30.15 "Hg

Humidity: 63%

Dew Point: 48 °F

Location of FunchalLocation

Past Weather in Funchal — Graph

°F

Funchal Temperature Yesterday

Maximum temperature yesterday: 64 °F (at 1:00 pm)
Minimum temperature yesterday: 59 °F (at 1:30 am)
Average temperature yesterday: 61 °F

High & Low Weather Summary for the Past Weeks

 TemperatureHumidityPressure
High70 °F (Jan 8, 12:00 pm)94% (Jan 12, 2:00 am)30.42 "Hg (Jan 12, 2:00 am)
Low59 °F (Jan 10, 2:00 am)43% (Jan 18, 3:00 pm)30.04 "Hg (Jan 6, 2:30 am)
Average63 °F69%30.23 "Hg
* Reported Jan 4 8:00 pm — Jan 19 8:00 pm, Funchal, Weather by CustomWeather, © 2017

Note: Actual official high and low records may vary slightly from our data, if they occured in-between our weather recording intervals... More about our weather records

Advertising

Funchal Weather History for the Previous 24 Hours

Scroll right to see more
 ConditionsComfort  
Time TempWeatherWind HumidityBarometerVisibility
8:00 pm
Thu, Jan 19
61 °FPassing clouds.7 mph68%30.15 "HgN/A
7:30 pm61 °FPassing clouds.9 mph68%30.15 "HgN/A
7:00 pm61 °FScattered clouds.7 mph63%30.15 "HgN/A
6:30 pm61 °FScattered clouds.7 mph68%30.15 "HgN/A
6:00 pm63 °FScattered clouds.8 mph64%30.15 "HgN/A
5:30 pm63 °FScattered clouds.6 mph59%30.15 "HgN/A
5:00 pm64 °FScattered clouds.8 mph56%30.15 "HgN/A
4:30 pm64 °FScattered clouds.9 mph56%30.15 "HgN/A
4:00 pm64 °FScattered clouds.10 mph56%30.15 "HgN/A
3:30 pm64 °FScattered clouds.8 mph52%30.15 "HgN/A
3:00 pm66 °FScattered clouds.6 mph49%30.15 "HgN/A
2:30 pm64 °FScattered clouds.7 mph49%30.15 "HgN/A
2:00 pm64 °FScattered clouds.9 mph49%30.15 "HgN/A
1:30 pm64 °FPartly sunny.10 mph52%30.15 "HgN/A
1:00 pm64 °FPartly sunny.5 mph49%30.15 "HgN/A
12:30 pm63 °FPartly sunny.7 mph56%30.18 "HgN/A
12:00 pm63 °FPartly sunny.8 mph59%30.18 "HgN/A
11:30 am61 °FPartly sunny.8 mph68%30.18 "HgN/A
11:00 am63 °FPartly sunny.10 mph59%30.18 "HgN/A
10:30 am61 °FPartly sunny.9 mph59%30.18 "HgN/A
10:00 am61 °FPartly sunny.7 mph59%30.18 "HgN/A
9:30 am61 °FPartly sunny.3 mph55%30.15 "HgN/A
9:00 am61 °FPassing clouds.7 mph55%30.15 "HgN/A
8:30 am61 °FPassing clouds.5 mph55%30.15 "HgN/A
8:00 am59 °FPassing clouds.7 mph59%30.15 "HgN/A
7:30 am59 °FPassing clouds.6 mph59%30.12 "HgN/A
7:00 am59 °FPassing clouds.6 mph63%30.12 "HgN/A
6:30 am59 °FPassing clouds.5 mph63%30.12 "HgN/A
6:00 am59 °FPassing clouds.5 mph63%30.12 "HgN/A
5:30 am59 °FPassing clouds.6 mph63%30.12 "HgN/A
5:00 am61 °FPassing clouds.7 mph59%30.12 "HgN/A
4:30 am59 °FPassing clouds.7 mph63%30.12 "HgN/A
4:00 am59 °FPassing clouds.6 mph63%30.12 "HgN/A
3:30 am61 °FPassing clouds.6 mph59%30.12 "HgN/A
3:00 am59 °FPassing clouds.5 mph63%30.12 "HgN/A
2:30 am59 °FPassing clouds.5 mph63%30.15 "HgN/A
2:00 am59 °FPassing clouds.6 mph63%30.15 "HgN/A
1:30 am59 °FPassing clouds.5 mph63%30.15 "HgN/A
1:00 am59 °FPassing clouds.5 mph59%30.15 "HgN/A
12:30 am61 °FPassing clouds.7 mph59%30.15 "HgN/A
12:00 am61 °FPassing clouds.6 mph59%30.15 "HgN/A
11:30 pm
Wed, Jan 18
61 °FPassing clouds.6 mph55%30.15 "HgN/A
11:00 pm61 °FPassing clouds.6 mph55%30.15 "HgN/A
10:30 pm61 °FPassing clouds.3 mph52%30.15 "HgN/A
10:00 pm61 °FPassing clouds.9 mph55%30.15 "HgN/A
9:30 pm61 °FPassing clouds.12 mph55%30.15 "HgN/A
9:00 pm61 °FPassing clouds.8 mph59%30.15 "HgN/A
Weather by CustomWeather, © 2017

See weather overviewHow to use our weather pages